Regional Weather Roundup
Issued by NWS

Home | Current Version | Previous Version | Graphics & Text | Print | Product List | Glossary On
Versions: 1 2 3 4 5 6 7 8 9 10 11 12 13 14 15 16 17 18 19 20 21 22 23 24 25 26 27 28 29 30 31 32 33 34 35 36 37 38 39 40 41 42 43 44 45 46 47 48 49 50
000
ASUS45 KCYS 231710
RWRWY

WYOMING REGIONAL WEATHER ROUNDUP
NATIONAL WEATHER SERVICE CHEYENNE WY
1000 AM MST SUN NOV 23 2014

NOTE:  "FAIR" INDICATES FEW OR NO CLOUDS BELOW 12,000 FEET
WITH NO SIGNIFICANT WEATHER AND/OR OBSTRUCTIONS TO VISIBILITY.

WYZ001-231800-
YELLOWSTONE NATIONAL PARK

CITY           SKY/WX    TMP DP  RH WIND       PRES   REMARKS
LK YELLOWSTONE   N/A     20  14  77 VRB7G16   29.96R WCI  11
W YELLOWSTONE  NOT AVBL

$$
WYZ002>013-054>058-071-098>099-231800-
NORTHERN WYOMING

CITY           SKY/WX    TMP DP  RH WIND       PRES   REMARKS
JACKSON        CLOUDY    25  18  74 W18G35    29.99R WCI  11
CODY           CLOUDY    34  16  47 W7G17     29.89R WCI  28
GREYBULL       CLOUDY    33  23  66 W9        29.91R WCI  25
WORLAND        MOSUNNY   26  21  81 SW6       29.92R WCI  19
SHERIDAN       CLOUDY    39  19  44 NW26G40   29.86R WCI  28
BUFFALO        MOSUNNY   36  11  35 NW24G33   29.83R WCI  24
GILLETTE       NOT AVBL
HULETT           N/A    N/A N/A N/A MISG        N/A
NEWCASTLE      FAIR      32  19  59 NW15G21   29.81R WCI  22

$$
WYZ014>020-022>026-101>103-231800-
CENTRAL WYOMING

CITY           SKY/WX    TMP DP  RH WIND       PRES   REMARKS
BIG PINEY      MOSUNNY   38  14  37 N20G32    30.00R WCI  28
PINEDALE       SUNNY     23  14  68 W20G25    29.99R WCI   8
DUBOIS         CLOUDY    25  12  58 MISG      29.91R HAZE
LANDER         NOT AVBL
RIVERTON       MOSUNNY   32  15  49 NE9       29.92R WCI  24
CASPER         MOSUNNY   32  16  51 NW16G22   29.87R WCI  21
DOUGLAS        MOSUNNY  N/A N/A N/A NW20      29.86R

$$
WYZ021-027>030-104>119-231800-
SOUTHERN WYOMING

CITY           SKY/WX    TMP DP  RH WIND       PRES   REMARKS
EVANSTON       MOSUNNY   26  19  74 W12       30.08R WCI  16
KEMMERER       SUNNY     27  19  74 W22       30.04R WCI  12
FORT BRIDGER   FAIR      28  22  81 NW20G25   30.09R WCI  14
ROCK SPRINGS   MOSUNNY   28  18  66 W14G23    29.99R WCI  17
DIXON          SNOW      27  26  93 SW7       29.95S VSB 1/2 WCI  20
RAWLINS        CLOUDY    26  20  77 NW10G23   29.89R WCI  16
SARATOGA       CLOUDY    28  23  80 W15       29.88R WCI  17
LARAMIE        PTSUNNY   28  11  48 NW21      29.81R WCI  15
CHEYENNE       SUNNY     35   9  33 NW29G41   29.77S WCI  22
TORRINGTON     SUNNY     39  14  36 N26G41    29.80R WCI  28
PINE BLUFFS    FAIR      36  18  48 N26G32    29.80R WCI  23

$$


USA.gov is the U.S. government's official web portal to all federal, state and local government web resources and services.